This is the latest recevied weather packets stored in our database for station/object W7TTE. If no packets are shown the sender has not sent any weather packets the latest 10 day(s).
| Time | Temp. | Humidity | Pressure | Rain* | Wind** | Luminosity | Snow |
|---|---|---|---|---|---|---|---|
| 1777936064 | 25° C | 42% | 1013.6 hPa | 0 mm | - | 297 W/m² | - |
| 1777935763 | 25° C | 41% | 1013.6 hPa | 0 mm | - | 283 W/m² | - |
| 1777935461 | 25° C | 41% | 1013.4 hPa | 0 mm | - | 249 W/m² | - |
| 1777935157 | 25° C | 41% | 1013.5 hPa | 0 mm | - | 232 W/m² | - |
| 1777934854 | 25° C | 41% | 1013.7 hPa | 0 mm | - | 247 W/m² | - |
| 1777934551 | 25° C | 41% | 1013.7 hPa | 0 mm | - | 276 W/m² | - |
| 1777934248 | 25.56° C | 40% | 1013.7 hPa | 0 mm | - | 297 W/m² | - |
| 1777933944 | 25° C | 41% | 1013.7 hPa | 0 mm | - | 300 W/m² | - |
| 1777933641 | 25° C | 41% | 1013.8 hPa | 0 mm | - | 283 W/m² | - |
| 1777933337 | 25° C | 41% | 1013.8 hPa | 0 mm | - | 274 W/m² | - |
| 1777933035 | 25° C | 41% | 1013.8 hPa | 0 mm | - | 321 W/m² | - |
| 1777932732 | 25° C | 41% | 1014 hPa | 0 mm | - | 319 W/m² | - |
| 1777932428 | 24.44° C | 42% | 1014 hPa | 0 mm | - | 357 W/m² | - |
| 1777932126 | 24.44° C | 42% | 1014 hPa | 0 mm | - | 313 W/m² | - |
| 1777931822 | 25° C | 41% | 1014.1 hPa | 0 mm | - | 366 W/m² | - |
| 1777931519 | 24.44° C | 42% | 1014.1 hPa | 0 mm | - | 348 W/m² | - |
| 1777931215 | 24.44° C | 42% | 1014.5 hPa | 0 mm | - | 362 W/m² | - |
| 1777930911 | 24.44° C | 42% | 1014.3 hPa | 0 mm | - | 387 W/m² | - |
| 1777930608 | 24.44° C | 41% | 1014.4 hPa | 0 mm | - | 408 W/m² | - |
| 1777930305 | 24.44° C | 43% | 1014.3 hPa | 0 mm | - | 380 W/m² | - |
| 1777930001 | 23.89° C | 43% | 1014.3 hPa | 0 mm | - | 337 W/m² | - |
| 1777929698 | 24.44° C | 43% | 1014.7 hPa | 0 mm | - | 284 W/m² | - |
| 1777929396 | 23.89° C | 44% | 1014.8 hPa | 0 mm | - | 267 W/m² | - |
| 1777929092 | 23.89° C | 44% | 1015 hPa | 0 mm | - | 326 W/m² | - |
| 1777928790 | 23.33° C | 45% | 1014.9 hPa | 0 mm | - | 248 W/m² | - |
* Rain latest hour (hover to see other rain measurements)
** Current wind speed in m/s (hover to see current wind gust speed)